Williamsport, PA

1:03 PM EDT on June 21, 2018 (GMT -0400)
Williamsport Rgnl

Weather History for KIPT - August, 2017

Change the Weather History Date:

Sunday, August 13, 2017

  Actual Average Record
Temperature  
Mean Temperature 73 °F 72 °F  
Max Temperature 83 °F 82 °F 101 °F (1944)
Min Temperature 62 °F 61 °F 41 °F (1930)
Degree Days  
Heating Degree Days 0 0  
Month to date heating degree days 0 0  
Since 1 June heating degree days 21 41  
Since 1 July heating degree days 0 4  
Cooling Degree Days 8 7  
Month to date cooling degree days 91 96  
Year to date cooling degree days 637 529  
Since 1 June cooling degree days 587 486  
Growing Degree Days 22 (Base 50)    
Moisture  
Dew Point 62 °F    
Average Humidity 70    
Maximum Humidity 100    
Minimum Humidity 40    
Precipitation  
Precipitation 0.00 in 0.12 in 1.72 in (1955)
Month to date precipitation 4.43 1.68  
Year to date precipitation 34.70 24.85  
Sea Level Pressure  
Sea Level Pressure 29.97 in    
Wind  
Wind Speed 5 mph (WNW)    
Max Wind Speed 12 mph    
Max Gust Speed 17 mph    
Visibility 10 miles    
Events      
T = Trace of Precipitation, MM = Missing Value Source: NWS Daily Summary

Daily Weather History Graph

Daily Weather History Graph

Search for Another Location

Airport or City:

Astronomy

Aug. 13, 2017 Rise Set
Actual Time 6:15 AM EDT 8:09 PM EDT
Civil Twilight 5:45 AM EDT 8:38 PM EDT
Nautical Twilight 5:09 AM EDT 9:14 PM EDT
Astronomical Twilight 4:29 AM EDT 9:54 PM EDT
Moon 11:38 PM EDT (8/13) 12:16 PM EDT (8/13)
Length of Visible Light 14h 53m
Length of Day
13h 53m
Waning Gibbous, 65% of the Moon is Illuminated
Aug 13
Waning Gibbous
Aug 14
Last Quarter
Aug 21
New
Aug 29
First Quarter
Sep 6
Full

Hourly Weather History & Observations

Time (EDT) Temp. Heat Index Dew Point Humidity Pressure Visibility Wind Dir Wind Speed Gust Speed Precip Events Conditions
12:12 AM 69.1 °F - 68.0 °F 96% 29.90 in 5.0 mi Calm Calm - N/A   Mostly Cloudy
12:21 AM 69.1 °F - 68.0 °F 96% 29.90 in 5.0 mi Calm Calm - N/A   Scattered Clouds
12:54 AM 69.1 °F - 66.9 °F 93% 29.90 in 8.0 mi West 8.1 mph - N/A   Clear
1:54 AM 66.9 °F - 64.9 °F 93% 29.90 in 10.0 mi West 9.2 mph - N/A   Clear
2:54 AM 64.9 °F - 64.0 °F 97% 29.91 in 9.0 mi WNW 4.6 mph - N/A   Clear
3:54 AM 64.9 °F - 63.0 °F 93% 29.91 in 10.0 mi West 9.2 mph - N/A   Clear
4:54 AM 63.0 °F - 61.0 °F 93% 29.92 in 10.0 mi WNW 6.9 mph - N/A   Clear
5:54 AM 63.0 °F - 61.0 °F 93% 29.94 in 10.0 mi West 10.4 mph - N/A   Clear
6:54 AM 63.0 °F - 61.0 °F 93% 29.97 in 10.0 mi WNW 5.8 mph - N/A   Clear
7:30 AM 64.0 °F - 61.0 °F 90% 29.98 in 10.0 mi North 3.5 mph - N/A   Mostly Cloudy
7:51 AM 66.2 °F - 62.6 °F 88% 29.98 in 10.0 mi Variable 4.6 mph - N/A   Scattered Clouds
7:54 AM 66.0 °F - 63.0 °F 90% 29.98 in 10.0 mi WNW 4.6 mph - N/A   Scattered Clouds
8:54 AM 66.9 °F - 63.0 °F 87% 29.99 in 10.0 mi West 4.6 mph - N/A   Overcast
9:54 AM 70.0 °F - 62.1 °F 76% 30.00 in 10.0 mi WSW 8.1 mph - N/A   Overcast
10:54 AM 73.9 °F - 62.1 °F 66% 30.01 in 10.0 mi West 9.2 mph - N/A   Mostly Cloudy
11:54 AM 75.9 °F - 57.9 °F 54% 30.01 in 10.0 mi NNW 6.9 mph - N/A   Mostly Cloudy
12:54 PM 80.1 °F 80.7 °F 59.0 °F 48% 30.00 in 10.0 mi North 6.9 mph 17.3 mph N/A   Scattered Clouds
1:54 PM 80.1 °F 80.6 °F 57.9 °F 47% 29.99 in 10.0 mi West 4.6 mph - N/A   Scattered Clouds
2:54 PM 82.0 °F 81.7 °F 57.0 °F 42% 29.99 in 10.0 mi WNW 8.1 mph - N/A   Scattered Clouds
3:54 PM 82.9 °F 82.1 °F 55.9 °F 39% 29.98 in 10.0 mi West 6.9 mph - N/A   Scattered Clouds
4:54 PM 82.9 °F 82.1 °F 55.9 °F 39% 29.99 in 10.0 mi West 6.9 mph - N/A   Scattered Clouds
5:54 PM 82.9 °F 82.1 °F 55.9 °F 39% 29.98 in 10.0 mi WNW 5.8 mph - N/A   Scattered Clouds
6:54 PM 77.0 °F - 61.0 °F 58% 29.98 in 10.0 mi SW 3.5 mph - N/A   Clear
7:54 PM 72.0 °F - 64.0 °F 76% 29.99 in 10.0 mi Calm Calm - N/A   Clear
8:54 PM 69.1 °F - 62.1 °F 78% 30.01 in 10.0 mi WNW 3.5 mph - N/A   Clear
9:54 PM 66.9 °F - 62.1 °F 84% 30.02 in 10.0 mi Calm Calm - N/A   Clear
10:54 PM 64.9 °F - 62.1 °F 90% 30.03 in 10.0 mi Calm Calm - N/A   Clear
11:54 PM 64.0 °F - 61.0 °F 90% 30.04 in 10.0 mi Calm Calm - N/A   Clear